EN

Hourly Weather Abartzuza

Today, 12 June, Saturday

Time Temperature Precipitation Wind Pressure Humidity
00:00 +14°C° 0 mm 1 mps 714 mmHg 91%
01:00 +14°C° 0 mm 1 mps 713 mmHg 92%
02:00 +14°C° 0 mm 1 mps 713 mmHg 92%
03:00 +13°C° 0 mm 1 mps 713 mmHg 93%
04:00 +14°C° 0 mm 1 mps 713 mmHg 91%
05:00 +15°C° 0 mm 1 mps 714 mmHg 89%
06:00 +15°C° 0 mm 1 mps 714 mmHg 88%
07:00 +19°C° 0 mm 1 mps 714 mmHg 79%
08:00 +21°C° 0 mm 1 mps 715 mmHg 70%
09:00 +23°C° 0 mm 1 mps 715 mmHg 61%
10:00 +25°C° 0 mm 1 mps 715 mmHg 56%
11:00 +26°C° 0 mm 1 mps 715 mmHg 50%
12:00 +28°C° 0 mm 2 mps 715 mmHg 45%
13:00 +28°C° 0 mm 2 mps 715 mmHg 44%
14:00 +28°C° 0 mm 2 mps 715 mmHg 43%
15:00 +29°C° 0 mm 2 mps 714 mmHg 41%
16:00 +28°C° 0 mm 2 mps 714 mmHg 45%
17:00 +28°C° 0 mm 2 mps 714 mmHg 49%
18:00 +27°C° 0 mm 2 mps 714 mmHg 53%
19:00 +25°C° 0 mm 2 mps 714 mmHg 63%
20:00 +23°C° 0 mm 2 mps 714 mmHg 74%
21:00 +19°C° 0 mm 2 mps 714 mmHg 84%
22:00 +19°C° 0 mm 2 mps 714 mmHg 86%
23:00 +19°C° 0 mm 1 mps 714 mmHg 87%

Tomorrow, 13 June, Sunday

Time Temperature Precipitation Wind Pressure Humidity
00:00 +19°C° 0 mm 1 mps 714 mmHg 88%
01:00 +19°C° 0 mm 1 mps 714 mmHg 88%
02:00 +19°C° 0 mm 1 mps 714 mmHg 87%
03:00 +18°C° 0 mm 1 mps 714 mmHg 86%
04:00 +19°C° 0 mm 1 mps 714 mmHg 83%
05:00 +20°C° 0 mm 1 mps 714 mmHg 80%
06:00 +21°C° 0 mm 1 mps 715 mmHg 78%
07:00 +23°C° 0 mm 1 mps 715 mmHg 68%
08:00 +25°C° 0 mm 1 mps 715 mmHg 58%
09:00 +27°C° 0 mm 2 mps 715 mmHg 48%
10:00 +29°C° 0 mm 2 mps 715 mmHg 43%
11:00 +30°C° 0 mm 2 mps 715 mmHg 38%
12:00 +31°C° 0 mm 3 mps 715 mmHg 32%
13:00 +33°C° 0 mm 3 mps 714 mmHg 30%
14:00 +33°C° 0 mm 3 mps 714 mmHg 29%
15:00 +34°C° 0 mm 3 mps 714 mmHg 27%
16:00 +32°C° 0 mm 2 mps 713 mmHg 32%
17:00 +30°C° 0 mm 2 mps 713 mmHg 37%
18:00 +29°C° 0 mm 2 mps 713 mmHg 43%
19:00 +28°C° 0 mm 2 mps 713 mmHg 45%
20:00 +26°C° 0 mm 1 mps 713 mmHg 46%
21:00 +24°C° 0 mm 1 mps 713 mmHg 48%
22:00 +23°C° 0.1 mm 1 mps 713 mmHg 52%
23:00 +22°C° 0.1 mm 1 mps 713 mmHg 57%

Day after tomorrow, 14 June, Monday

Time Temperature Precipitation Wind Pressure Humidity
00:00 +21°C° 0.1 mm 1 mps 713 mmHg 61%
01:00 +20°C° 0.1 mm 1 mps 713 mmHg 63%
02:00 +20°C° 0.1 mm 1 mps 713 mmHg 65%
03:00 +19°C° 0.1 mm 1 mps 713 mmHg 67%
04:00 +20°C° 0 mm 1 mps 713 mmHg 67%
05:00 +21°C° 0 mm 1 mps 713 mmHg 67%
06:00 +19°C° 0 mm 0 mps 713 mmHg 67%
07:00 +22°C° 0 mm 0 mps 713 mmHg 59%
08:00 +24°C° 0 mm 0 mps 714 mmHg 51%
09:00 +26°C° 0 mm 0 mps 714 mmHg 43%
10:00 +30°C° 0 mm 1 mps 714 mmHg 39%
11:00 +31°C° 0 mm 1 mps 714 mmHg 36%
12:00 +32°C° 0 mm 1 mps 714 mmHg 33%
13:00 +32°C° 0 mm 2 mps 714 mmHg 33%
14:00 +32°C° 0 mm 2 mps 713 mmHg 34%
15:00 +34°C° 0 mm 2 mps 713 mmHg 34%
16:00 +30°C° 0.3 mm 2 mps 713 mmHg 46%
17:00 +27°C° 0.3 mm 3 mps 712 mmHg 59%
18:00 +25°C° 0.3 mm 3 mps 712 mmHg 71%
19:00 +22°C° 0.2 mm 3 mps 713 mmHg 78%
20:00 +20°C° 0.2 mm 2 mps 713 mmHg 84%
21:00 +19°C° 0.2 mm 2 mps 713 mmHg 90%
22:00 +18°C° 0.2 mm 2 mps 713 mmHg 91%
23:00 +18°C° 0.2 mm 2 mps 713 mmHg 91%

15 June, Tuesday

Time Temperature Precipitation Wind Pressure Humidity
00:00 +18°C° 0.2 mm 2 mps 713 mmHg 92%
01:00 +17°C° 0 mm 2 mps 712 mmHg 91%
02:00 +17°C° 0 mm 2 mps 712 mmHg 90%
03:00 +18°C° 0 mm 1 mps 712 mmHg 90%
04:00 +18°C° 0 mm 1 mps 712 mmHg 87%
05:00 +19°C° 0 mm 1 mps 712 mmHg 85%
06:00 +19°C° 0 mm 1 mps 712 mmHg 82%
07:00 +22°C° 0 mm 1 mps 712 mmHg 72%
08:00 +24°C° 0 mm 1 mps 712 mmHg 62%
09:00 +27°C° 0 mm 1 mps 712 mmHg 52%
10:00 +28°C° 0 mm 1 mps 712 mmHg 46%
11:00 +30°C° 0 mm 1 mps 712 mmHg 40%
12:00 +32°C° 0 mm 2 mps 712 mmHg 34%
13:00 +32°C° 0 mm 2 mps 711 mmHg 34%
14:00 +32°C° 0 mm 2 mps 711 mmHg 34%
15:00 +34°C° 0 mm 2 mps 710 mmHg 33%
16:00 +31°C° 0.1 mm 3 mps 710 mmHg 42%
17:00 +29°C° 0.1 mm 3 mps 709 mmHg 51%
18:00 +26°C° 0.1 mm 4 mps 709 mmHg 60%
19:00 +23°C° 2.7 mm 4 mps 709 mmHg 70%
20:00 +21°C° 2.7 mm 3 mps 710 mmHg 79%
21:00 +19°C° 2.7 mm 3 mps 711 mmHg 89%
22:00 +19°C° 0.3 mm 2 mps 711 mmHg 89%
23:00 +18°C° 0.3 mm 2 mps 710 mmHg 89%

16 June, Wednesday

Time Temperature Precipitation Wind Pressure Humidity
00:00 +18°C° 0.3 mm 2 mps 710 mmHg 88%
01:00 +18°C° 0.1 mm 2 mps 709 mmHg 88%
02:00 +18°C° 0.1 mm 2 mps 709 mmHg 87%
03:00 +19°C° 0.1 mm 2 mps 708 mmHg 86%
04:00 +19°C° 0 mm 2 mps 708 mmHg 84%
05:00 +19°C° 0 mm 2 mps 708 mmHg 82%
06:00 +19°C° 0 mm 2 mps 708 mmHg 79%
07:00 +21°C° 0 mm 3 mps 708 mmHg 72%
08:00 +22°C° 0 mm 4 mps 708 mmHg 64%
09:00 +25°C° 0 mm 4 mps 709 mmHg 57%
10:00 +26°C° 0 mm 5 mps 708 mmHg 52%
11:00 +28°C° 0 mm 5 mps 708 mmHg 47%
12:00 +29°C° 0 mm 5 mps 708 mmHg 42%
13:00 +29°C° 0.2 mm 5 mps 708 mmHg 42%
14:00 +30°C° 0.2 mm 5 mps 707 mmHg 41%
15:00 +30°C° 0.2 mm 4 mps 707 mmHg 41%
16:00 +27°C° 1.2 mm 4 mps 707 mmHg 53%
17:00 +25°C° 1.2 mm 3 mps 707 mmHg 64%
18:00 +21°C° 1.2 mm 3 mps 707 mmHg 75%
19:00 +20°C° 3.6 mm 2 mps 708 mmHg 82%
20:00 +19°C° 3.6 mm 2 mps 708 mmHg 89%
21:00 +18°C° 3.6 mm 2 mps 709 mmHg 96%
22:00 +18°C° 0.3 mm 2 mps 708 mmHg 95%
23:00 +19°C° 0.3 mm 1 mps 708 mmHg 93%

17 June, Thursday

Time Temperature Precipitation Wind Pressure Humidity
00:00 +19°C° 0.3 mm 1 mps 708 mmHg 92%
01:00 +18°C° 0 mm 1 mps 707 mmHg 92%
02:00 +18°C° 0 mm 1 mps 707 mmHg 92%
03:00 +18°C° 0 mm 1 mps 707 mmHg 92%
04:00 +18°C° 0 mm 1 mps 707 mmHg 91%
05:00 +19°C° 0 mm 1 mps 707 mmHg 89%
06:00 +19°C° 0 mm 1 mps 707 mmHg 87%
07:00 +20°C° 0 mm 2 mps 707 mmHg 81%
08:00 +21°C° 0 mm 3 mps 707 mmHg 75%
09:00 +22°C° 0 mm 4 mps 707 mmHg 68%
10:00 +21°C° 0.8 mm 5 mps 707 mmHg 73%
11:00 +21°C° 0.8 mm 5 mps 707 mmHg 77%
12:00 +20°C° 0.8 mm 6 mps 707 mmHg 82%
13:00 +20°C° 0.5 mm 5 mps 707 mmHg 81%
14:00 +20°C° 0.5 mm 4 mps 706 mmHg 79%
15:00 +20°C° 0.5 mm 4 mps 706 mmHg 78%
16:00 +20°C° 0.4 mm 3 mps 706 mmHg 78%
17:00 +20°C° 0.4 mm 2 mps 707 mmHg 79%
18:00 +20°C° 0.4 mm 1 mps 707 mmHg 79%
19:00 +18°C° 0.7 mm 2 mps 708 mmHg 84%
20:00 +17°C° 0.7 mm 2 mps 708 mmHg 88%
21:00 +15°C° 0.7 mm 2 mps 709 mmHg 92%
22:00 +15°C° 0.3 mm 2 mps 709 mmHg 92%
23:00 +14°C° 0.3 mm 2 mps 710 mmHg 91%
Show more